Year,Month,Day,Hour,Minute,Value (Times are PST for temperature in C)
2016,06,05,00,00,23.70
2016,06,05,00,01,23.70
2016,06,05,00,02,23.70
2016,06,05,00,03,23.70
2016,06,05,00,04,23.60
2016,06,05,00,05,23.60
2016,06,05,00,06,23.50
2016,06,05,00,07,23.50
2016,06,05,00,08,23.40
2016,06,05,00,09,23.50
2016,06,05,00,10,23.50
2016,06,05,00,11,23.50
2016,06,05,00,12,23.60
2016,06,05,00,13,23.70
2016,06,05,00,14,23.70
2016,06,05,00,15,23.70
2016,06,05,00,16,23.80
2016,06,05,00,17,23.80
2016,06,05,00,18,23.80
2016,06,05,00,19,23.80
2016,06,05,00,20,23.70
2016,06,05,00,21,23.70
2016,06,05,00,22,23.70
2016,06,05,00,23,23.60
2016,06,05,00,24,23.60
2016,06,05,00,25,23.50
2016,06,05,00,26,23.50
2016,06,05,00,27,23.40
2016,06,05,00,28,23.40
2016,06,05,00,29,23.40
2016,06,05,00,30,23.30
2016,06,05,00,31,23.30
2016,06,05,00,32,23.30
2016,06,05,00,33,23.30
2016,06,05,00,34,23.30
2016,06,05,00,35,23.30
2016,06,05,00,36,23.30
2016,06,05,00,37,23.40
2016,06,05,00,38,23.40
2016,06,05,00,39,23.50
2016,06,05,00,40,23.50
2016,06,05,00,41,23.60
2016,06,05,00,42,23.60
2016,06,05,00,43,23.60
2016,06,05,00,44,23.60
2016,06,05,00,45,23.60
2016,06,05,00,46,23.60
2016,06,05,00,47,23.60
2016,06,05,00,48,23.60
2016,06,05,00,49,23.60
2016,06,05,00,50,23.60
2016,06,05,00,51,23.70
2016,06,05,00,52,23.70
2016,06,05,00,53,23.70
2016,06,05,00,54,23.70
2016,06,05,00,55,23.70
2016,06,05,00,56,23.60
2016,06,05,00,57,23.60
2016,06,05,00,58,23.60
2016,06,05,00,59,23.60
2016,06,05,01,00,23.60
2016,06,05,01,01,23.60
2016,06,05,01,02,23.60
2016,06,05,01,03,23.50
2016,06,05,01,04,23.50
2016,06,05,01,05,23.40
2016,06,05,01,06,23.40
2016,06,05,01,07,23.40
2016,06,05,01,08,23.40
2016,06,05,01,09,23.50
2016,06,05,01,10,23.50
2016,06,05,01,11,23.50
2016,06,05,01,12,23.50
2016,06,05,01,13,23.60
2016,06,05,01,14,23.60
2016,06,05,01,15,23.60
2016,06,05,01,16,23.50
2016,06,05,01,17,23.50
2016,06,05,01,18,23.50
2016,06,05,01,19,23.40
2016,06,05,01,20,23.40
2016,06,05,01,21,23.50
2016,06,05,01,22,23.50
2016,06,05,01,23,23.50
2016,06,05,01,24,23.50
2016,06,05,01,25,23.40
2016,06,05,01,26,23.40
2016,06,05,01,27,23.40
2016,06,05,01,28,23.30
2016,06,05,01,29,23.30
2016,06,05,01,30,23.30
2016,06,05,01,31,23.30
2016,06,05,01,32,23.40
2016,06,05,01,33,23.40
2016,06,05,01,34,23.40
2016,06,05,01,35,23.30
2016,06,05,01,36,23.30
2016,06,05,01,37,23.20
2016,06,05,01,38,23.10
2016,06,05,01,39,23.10
2016,06,05,01,40,23.00
2016,06,05,01,41,23.00
2016,06,05,01,42,22.90
2016,06,05,01,43,22.90
2016,06,05,01,44,22.90
2016,06,05,01,45,22.90
2016,06,05,01,46,22.80
2016,06,05,01,47,22.70
2016,06,05,01,48,22.70
2016,06,05,01,49,22.60
2016,06,05,01,50,22.50
2016,06,05,01,51,22.40
2016,06,05,01,52,22.40
2016,06,05,01,53,22.30
2016,06,05,01,54,22.30
2016,06,05,01,55,22.30
2016,06,05,01,56,22.30
2016,06,05,01,57,22.30
2016,06,05,01,58,22.30
2016,06,05,01,59,22.30
2016,06,05,02,00,22.30
2016,06,05,02,01,22.30
2016,06,05,02,02,22.20
2016,06,05,02,03,22.20
2016,06,05,02,04,22.10
2016,06,05,02,05,22.10
2016,06,05,02,06,22.10
2016,06,05,02,07,22.10
2016,06,05,02,08,22.10
2016,06,05,02,09,22.10
2016,06,05,02,10,22.10
2016,06,05,02,11,22.10
2016,06,05,02,12,22.10
2016,06,05,02,13,22.10
2016,06,05,02,14,22.10
2016,06,05,02,15,22.10
2016,06,05,02,16,22.10
2016,06,05,02,17,22.10
2016,06,05,02,18,22.20
2016,06,05,02,19,22.20
2016,06,05,02,20,22.20
2016,06,05,02,21,22.30
2016,06,05,02,22,22.30
2016,06,05,02,23,22.40
2016,06,05,02,24,22.50
2016,06,05,02,25,22.60
2016,06,05,02,26,22.70
2016,06,05,02,27,22.80
2016,06,05,02,28,22.80
2016,06,05,02,29,22.80
2016,06,05,02,30,22.80
2016,06,05,02,31,22.90
2016,06,05,02,32,22.90
2016,06,05,02,33,22.90
2016,06,05,02,34,22.90
2016,06,05,02,35,22.90
2016,06,05,02,36,22.90
2016,06,05,02,37,23.00
2016,06,05,02,38,23.00
2016,06,05,02,39,23.10
2016,06,05,02,40,23.20
2016,06,05,02,41,23.20
2016,06,05,02,42,23.30
2016,06,05,02,43,23.30
2016,06,05,02,44,23.20
2016,06,05,02,45,23.20
2016,06,05,02,46,23.10
2016,06,05,02,47,23.00
2016,06,05,02,48,22.90
2016,06,05,02,49,22.80
2016,06,05,02,50,22.70
2016,06,05,02,51,22.60
2016,06,05,02,52,22.60
2016,06,05,02,53,22.50
2016,06,05,02,54,22.40
2016,06,05,02,55,22.40
2016,06,05,02,56,22.30
2016,06,05,02,57,22.20
2016,06,05,02,58,22.20
2016,06,05,02,59,22.20
2016,06,05,03,00,22.10
2016,06,05,03,01,22.00
2016,06,05,03,02,22.00
2016,06,05,03,03,21.90
2016,06,05,03,04,21.80
2016,06,05,03,05,21.70
2016,06,05,03,06,21.60
2016,06,05,03,07,21.50
2016,06,05,03,08,21.40
2016,06,05,03,09,21.30
2016,06,05,03,10,21.20
2016,06,05,03,11,21.10
2016,06,05,03,12,21.00
2016,06,05,03,13,20.90
2016,06,05,03,14,20.80
2016,06,05,03,15,20.80
2016,06,05,03,16,20.80
2016,06,05,03,17,20.70
2016,06,05,03,18,20.70
2016,06,05,03,19,20.60
2016,06,05,03,20,20.60
2016,06,05,03,21,20.50
2016,06,05,03,22,20.50
2016,06,05,03,23,20.40
2016,06,05,03,24,20.40
2016,06,05,03,25,20.30
2016,06,05,03,26,20.30
2016,06,05,03,27,20.20
2016,06,05,03,28,20.20
2016,06,05,03,29,20.20
2016,06,05,03,30,20.10
2016,06,05,03,31,20.00
2016,06,05,03,32,20.00
2016,06,05,03,33,19.90
2016,06,05,03,34,19.80
2016,06,05,03,35,19.80
2016,06,05,03,36,19.80
2016,06,05,03,37,19.70
2016,06,05,03,38,19.70
2016,06,05,03,39,19.70
2016,06,05,03,40,19.70
2016,06,05,03,41,19.60
2016,06,05,03,42,19.60
2016,06,05,03,43,19.60
2016,06,05,03,44,19.50
2016,06,05,03,45,19.50
2016,06,05,03,46,19.50
2016,06,05,03,47,19.50
2016,06,05,03,48,19.50
2016,06,05,03,49,19.50
2016,06,05,03,50,19.50
2016,06,05,03,51,19.50
2016,06,05,03,52,19.40
2016,06,05,03,53,19.40
2016,06,05,03,54,19.40
2016,06,05,03,55,19.40
2016,06,05,03,56,19.30
2016,06,05,03,57,19.30
2016,06,05,03,58,19.30
2016,06,05,03,59,19.30
2016,06,05,04,00,19.30
2016,06,05,04,01,19.30
2016,06,05,04,02,19.30
2016,06,05,04,03,19.30
2016,06,05,04,04,19.40
2016,06,05,04,05,19.40
2016,06,05,04,06,19.50
2016,06,05,04,07,19.50
2016,06,05,04,08,19.60
2016,06,05,04,09,19.70
2016,06,05,04,10,19.70
2016,06,05,04,11,19.80
2016,06,05,04,12,19.80
2016,06,05,04,13,19.80
2016,06,05,04,14,19.80
2016,06,05,04,15,19.80
2016,06,05,04,16,19.80
2016,06,05,04,17,19.70
2016,06,05,04,18,19.70
2016,06,05,04,19,19.60
2016,06,05,04,20,19.60
2016,06,05,04,21,19.50
2016,06,05,04,22,19.50
2016,06,05,04,23,19.40
2016,06,05,04,24,19.40
2016,06,05,04,25,19.30
2016,06,05,04,26,19.30
2016,06,05,04,27,19.20
2016,06,05,04,28,19.10
2016,06,05,04,29,19.10
2016,06,05,04,30,19.10
2016,06,05,04,31,19.00
2016,06,05,04,32,19.00
2016,06,05,04,33,19.00
2016,06,05,04,34,18.90
2016,06,05,04,35,18.90
2016,06,05,04,36,18.90
2016,06,05,04,37,18.90
2016,06,05,04,38,18.90
2016,06,05,04,39,18.80
2016,06,05,04,40,18.80
2016,06,05,04,41,18.80
2016,06,05,04,42,18.80
2016,06,05,04,43,18.70
2016,06,05,04,44,18.70
2016,06,05,04,45,18.60
2016,06,05,04,46,18.50
2016,06,05,04,47,18.50
2016,06,05,04,48,18.40
2016,06,05,04,49,18.30
2016,06,05,04,50,18.20
2016,06,05,04,51,18.20
2016,06,05,04,52,18.10
2016,06,05,04,53,18.10
2016,06,05,04,54,18.00
2016,06,05,04,55,17.90
2016,06,05,04,56,17.90
2016,06,05,04,57,17.90
2016,06,05,04,58,17.90
2016,06,05,04,59,17.80
2016,06,05,05,00,17.80
2016,06,05,05,01,17.80
2016,06,05,05,02,17.70
2016,06,05,05,03,17.70
2016,06,05,05,04,17.70
2016,06,05,05,05,17.60
2016,06,05,05,06,17.60
2016,06,05,05,07,17.60
2016,06,05,05,08,17.60
2016,06,05,05,09,17.50
2016,06,05,05,10,17.50
2016,06,05,05,11,17.50
2016,06,05,05,12,17.50
2016,06,05,05,13,17.50
2016,06,05,05,14,17.50
2016,06,05,05,15,17.50
2016,06,05,05,16,17.50
2016,06,05,05,17,17.50
2016,06,05,05,18,17.50
2016,06,05,05,19,17.50
2016,06,05,05,20,17.50
2016,06,05,05,21,17.50
2016,06,05,05,22,17.40
2016,06,05,05,23,17.40
2016,06,05,05,24,17.40
2016,06,05,05,25,17.40
2016,06,05,05,26,17.40
2016,06,05,05,27,17.40
2016,06,05,05,28,17.40
2016,06,05,05,29,17.40
2016,06,05,05,30,17.40
2016,06,05,05,31,17.40
2016,06,05,05,32,17.40
2016,06,05,05,33,17.30
2016,06,05,05,34,17.30
2016,06,05,05,35,17.30
2016,06,05,05,36,17.30
2016,06,05,05,37,17.30
2016,06,05,05,38,17.30
2016,06,05,05,39,17.30
2016,06,05,05,40,17.30
2016,06,05,05,41,17.30
2016,06,05,05,42,17.30
2016,06,05,05,43,17.30
2016,06,05,05,44,17.30
2016,06,05,05,45,17.20
2016,06,05,05,46,17.20
2016,06,05,05,47,17.20
2016,06,05,05,48,17.20
2016,06,05,05,49,17.20
2016,06,05,05,50,17.20
2016,06,05,05,51,17.30
2016,06,05,05,52,17.40
2016,06,05,05,53,17.40
2016,06,05,05,54,17.50
2016,06,05,05,55,17.60
2016,06,05,05,56,17.60
2016,06,05,05,57,17.70
2016,06,05,05,58,17.80
2016,06,05,05,59,17.90
2016,06,05,06,00,18.00
2016,06,05,06,01,18.10
2016,06,05,06,02,18.10
2016,06,05,06,03,18.20
2016,06,05,06,04,18.30
2016,06,05,06,05,18.30
2016,06,05,06,06,18.40
2016,06,05,06,07,18.50
2016,06,05,06,08,18.50
2016,06,05,06,09,18.60
2016,06,05,06,10,18.70
2016,06,05,06,11,18.70
2016,06,05,06,12,18.70
2016,06,05,06,13,18.70
2016,06,05,06,14,18.70
2016,06,05,06,15,18.70
2016,06,05,06,16,18.70
2016,06,05,06,17,18.80
2016,06,05,06,18,18.80
2016,06,05,06,19,18.80
2016,06,05,06,20,18.80
2016,06,05,06,21,18.80
2016,06,05,06,22,18.90
2016,06,05,06,23,18.90
2016,06,05,06,24,18.90
2016,06,05,06,25,19.00
2016,06,05,06,26,19.10
2016,06,05,06,27,19.10
2016,06,05,06,28,19.20
2016,06,05,06,29,19.20
2016,06,05,06,30,19.30
2016,06,05,06,31,19.30
2016,06,05,06,32,19.40
2016,06,05,06,33,19.40
2016,06,05,06,34,19.40
2016,06,05,06,35,19.40
2016,06,05,06,36,19.40
2016,06,05,06,37,19.40
2016,06,05,06,38,19.40
2016,06,05,06,39,19.40
2016,06,05,06,40,19.40
2016,06,05,06,41,19.40
2016,06,05,06,42,19.30
2016,06,05,06,43,19.30
2016,06,05,06,44,19.30
2016,06,05,06,45,19.30
2016,06,05,06,46,19.30
2016,06,05,06,47,19.20
2016,06,05,06,48,19.20
2016,06,05,06,49,19.20
2016,06,05,06,50,19.20
2016,06,05,06,51,19.20
2016,06,05,06,52,19.30
2016,06,05,06,53,19.30
2016,06,05,06,54,19.30
2016,06,05,06,55,19.30
2016,06,05,06,56,19.30
2016,06,05,06,57,19.30
2016,06,05,06,58,19.30
2016,06,05,06,59,19.30
2016,06,05,07,00,19.30
2016,06,05,07,01,19.30
2016,06,05,07,02,19.30
2016,06,05,07,03,19.30
2016,06,05,07,04,19.30
2016,06,05,07,05,19.30
2016,06,05,07,06,19.30
2016,06,05,07,07,19.30
2016,06,05,07,08,19.30
2016,06,05,07,09,19.30
2016,06,05,07,10,19.30
2016,06,05,07,11,19.30
2016,06,05,07,12,19.30
2016,06,05,07,13,19.40
2016,06,05,07,14,19.40
2016,06,05,07,15,19.50
2016,06,05,07,16,19.50
2016,06,05,07,17,19.60
2016,06,05,07,18,19.70
2016,06,05,07,19,19.80
2016,06,05,07,20,19.80
2016,06,05,07,21,19.90
2016,06,05,07,22,20.00
2016,06,05,07,23,20.00
2016,06,05,07,24,20.10
2016,06,05,07,25,20.20
2016,06,05,07,26,20.20
2016,06,05,07,27,20.30
2016,06,05,07,28,20.30
2016,06,05,07,29,20.40
2016,06,05,07,30,20.50
2016,06,05,07,31,20.60
2016,06,05,07,32,20.60
2016,06,05,07,33,20.80
2016,06,05,07,34,20.90
2016,06,05,07,35,21.00
2016,06,05,07,36,21.10
2016,06,05,07,37,21.20
2016,06,05,07,38,21.30
2016,06,05,07,39,21.40
2016,06,05,07,40,21.40
2016,06,05,07,41,21.50
2016,06,05,07,42,21.50
2016,06,05,07,43,21.60
2016,06,05,07,44,21.60
2016,06,05,07,45,21.60
2016,06,05,07,46,21.70
2016,06,05,07,47,21.70
2016,06,05,07,48,21.70
2016,06,05,07,49,21.70
2016,06,05,07,50,21.70
2016,06,05,07,51,21.70
2016,06,05,07,52,21.70
2016,06,05,07,53,21.70
2016,06,05,07,54,21.80
2016,06,05,07,55,21.80
2016,06,05,07,56,21.90
2016,06,05,07,57,22.00
2016,06,05,07,58,22.10
2016,06,05,07,59,22.20
2016,06,05,08,00,22.20
2016,06,05,08,01,22.30
2016,06,05,08,02,22.30
2016,06,05,08,03,22.40
2016,06,05,08,04,22.50
2016,06,05,08,05,22.60
2016,06,05,08,06,22.70
2016,06,05,08,07,22.70
2016,06,05,08,08,22.80
2016,06,05,08,09,23.00
2016,06,05,08,10,23.10
2016,06,05,08,11,23.20
2016,06,05,08,12,23.30
2016,06,05,08,13,23.40
2016,06,05,08,14,23.40
2016,06,05,08,15,23.50
2016,06,05,08,16,23.60
2016,06,05,08,17,23.70
2016,06,05,08,18,23.80
2016,06,05,08,19,23.80
2016,06,05,08,20,23.90
2016,06,05,08,21,24.00
2016,06,05,08,22,24.10
2016,06,05,08,23,24.10
2016,06,05,08,24,24.20
2016,06,05,08,25,24.20
2016,06,05,08,26,24.30
2016,06,05,08,27,24.30
2016,06,05,08,28,24.30
2016,06,05,08,29,24.30
2016,06,05,08,30,24.40
2016,06,05,08,31,24.40
2016,06,05,08,32,24.50
2016,06,05,08,33,24.60
2016,06,05,08,34,24.60
2016,06,05,08,35,24.60
2016,06,05,08,36,24.60
2016,06,05,08,37,24.60
2016,06,05,08,38,24.50
2016,06,05,08,39,24.50
2016,06,05,08,40,24.50
2016,06,05,08,41,24.60
2016,06,05,08,42,24.60
2016,06,05,08,43,24.60
2016,06,05,08,44,24.70
2016,06,05,08,45,24.70
2016,06,05,08,46,24.70
2016,06,05,08,47,24.80
2016,06,05,08,48,24.90
2016,06,05,08,49,24.90
2016,06,05,08,50,24.90
2016,06,05,08,51,25.00
2016,06,05,08,52,25.00
2016,06,05,08,53,25.10
2016,06,05,08,54,25.20
2016,06,05,08,55,25.30
2016,06,05,08,56,25.30
2016,06,05,08,57,25.40
2016,06,05,08,58,25.40
2016,06,05,08,59,25.50
2016,06,05,09,00,25.50
2016,06,05,09,01,25.60
2016,06,05,09,02,25.70
2016,06,05,09,03,25.70
2016,06,05,09,04,25.80
2016,06,05,09,05,25.80
2016,06,05,09,06,25.80
2016,06,05,09,07,25.90
2016,06,05,09,08,25.90
2016,06,05,09,09,25.90
2016,06,05,09,10,25.90
2016,06,05,09,11,25.90
2016,06,05,09,12,25.90
2016,06,05,09,13,25.90
2016,06,05,09,14,25.90
2016,06,05,09,15,25.80
2016,06,05,09,16,25.80
2016,06,05,09,17,25.90
2016,06,05,09,18,25.90
2016,06,05,09,19,25.90
2016,06,05,09,20,25.90
2016,06,05,09,21,25.90
2016,06,05,09,22,25.90
2016,06,05,09,23,25.90
2016,06,05,09,24,25.80
2016,06,05,09,25,25.80
2016,06,05,09,26,25.90
2016,06,05,09,27,25.90
2016,06,05,09,28,25.90
2016,06,05,09,29,25.90
2016,06,05,09,30,25.90
2016,06,05,09,31,25.90
2016,06,05,09,32,25.90
2016,06,05,09,33,25.90
2016,06,05,09,34,25.90
2016,06,05,09,35,25.90
2016,06,05,09,36,25.90
2016,06,05,09,37,26.00
2016,06,05,09,38,26.10
2016,06,05,09,39,26.20
2016,06,05,09,40,26.40
2016,06,05,09,41,26.50
2016,06,05,09,42,26.60
2016,06,05,09,43,26.60
2016,06,05,09,44,26.70
2016,06,05,09,45,26.70
2016,06,05,09,46,26.70
2016,06,05,09,47,26.70
2016,06,05,09,48,26.60
2016,06,05,09,49,26.50
2016,06,05,09,50,26.40
2016,06,05,09,51,26.30
2016,06,05,09,52,26.30
2016,06,05,09,53,26.20
2016,06,05,09,54,26.20
2016,06,05,09,55,26.20
2016,06,05,09,56,26.20
2016,06,05,09,57,26.20
2016,06,05,09,58,26.20
2016,06,05,09,59,26.30
2016,06,05,10,00,26.30
2016,06,05,10,01,26.30
2016,06,05,10,02,26.40
2016,06,05,10,03,26.40
2016,06,05,10,04,26.40
2016,06,05,10,05,26.50
2016,06,05,10,06,26.50
2016,06,05,10,07,26.50
2016,06,05,10,08,26.40
2016,06,05,10,09,26.30
2016,06,05,10,10,26.20
2016,06,05,10,11,26.00
2016,06,05,10,12,26.00
2016,06,05,10,13,25.90
2016,06,05,10,14,25.90
2016,06,05,10,15,25.90
2016,06,05,10,16,25.90
2016,06,05,10,17,26.00
2016,06,05,10,18,26.00
2016,06,05,10,19,26.00
2016,06,05,10,20,26.00
2016,06,05,10,21,25.90
2016,06,05,10,22,25.90
2016,06,05,10,23,25.90
2016,06,05,10,24,25.90
2016,06,05,10,25,25.90
2016,06,05,10,26,25.90
2016,06,05,10,27,26.00
2016,06,05,10,28,26.00
2016,06,05,10,29,26.00
2016,06,05,10,30,26.00
2016,06,05,10,31,26.00
2016,06,05,10,32,26.00
2016,06,05,10,33,25.90
2016,06,05,10,34,25.90
2016,06,05,10,35,25.90
2016,06,05,10,36,25.90
2016,06,05,10,37,25.90
2016,06,05,10,38,25.90
2016,06,05,10,39,26.00
2016,06,05,10,40,26.10
2016,06,05,10,41,26.10
2016,06,05,10,42,26.20
2016,06,05,10,43,26.20
2016,06,05,10,44,26.30
2016,06,05,10,45,26.30
2016,06,05,10,46,26.40
2016,06,05,10,47,26.60
2016,06,05,10,48,26.60
2016,06,05,10,49,26.60
2016,06,05,10,50,26.60
2016,06,05,10,51,26.60
2016,06,05,10,52,26.60
2016,06,05,10,53,26.70
2016,06,05,10,54,26.70
2016,06,05,10,55,26.70
2016,06,05,10,56,26.80
2016,06,05,10,57,26.80
2016,06,05,10,58,26.80
2016,06,05,10,59,26.90
2016,06,05,11,00,27.00
2016,06,05,11,01,27.10
2016,06,05,11,02,27.10
2016,06,05,11,03,27.10
2016,06,05,11,04,27.20
2016,06,05,11,05,27.10
2016,06,05,11,06,27.10
2016,06,05,11,07,27.10
2016,06,05,11,08,27.10
2016,06,05,11,09,27.20
2016,06,05,11,10,27.30
2016,06,05,11,11,27.30
2016,06,05,11,12,27.30
2016,06,05,11,13,27.30
2016,06,05,11,14,27.30
2016,06,05,11,15,27.40
2016,06,05,11,16,27.40
2016,06,05,11,17,27.60
2016,06,05,11,18,27.70
2016,06,05,11,19,27.70
2016,06,05,11,20,27.70
2016,06,05,11,21,27.70
2016,06,05,11,22,27.70
2016,06,05,11,23,27.60
2016,06,05,11,24,27.60
2016,06,05,11,25,27.50
2016,06,05,11,26,27.60
2016,06,05,11,27,27.50
2016,06,05,11,28,27.50
2016,06,05,11,29,27.50
2016,06,05,11,30,27.50
2016,06,05,11,31,27.50
2016,06,05,11,32,27.60
2016,06,05,11,33,27.60
2016,06,05,11,34,27.70
2016,06,05,11,35,27.80
2016,06,05,11,36,27.80
2016,06,05,11,37,27.80
2016,06,05,11,38,27.70
2016,06,05,11,39,27.60
2016,06,05,11,40,27.70
2016,06,05,11,41,27.80
2016,06,05,11,42,27.80
2016,06,05,11,43,27.80
2016,06,05,11,44,27.80
2016,06,05,11,45,27.80
2016,06,05,11,46,27.80
2016,06,05,11,47,27.90
2016,06,05,11,48,28.00
2016,06,05,11,49,28.00
2016,06,05,11,50,28.10
2016,06,05,11,51,28.10
2016,06,05,11,52,28.10
2016,06,05,11,53,28.10
2016,06,05,11,54,28.10
2016,06,05,11,55,28.00
2016,06,05,11,56,28.00
2016,06,05,11,57,28.00
2016,06,05,11,58,28.00
2016,06,05,11,59,27.90
2016,06,05,12,00,27.90
2016,06,05,12,01,27.80
2016,06,05,12,02,27.80
2016,06,05,12,03,27.80
2016,06,05,12,04,27.90
2016,06,05,12,05,27.90
2016,06,05,12,06,27.90
2016,06,05,12,07,27.90
2016,06,05,12,08,27.90
2016,06,05,12,09,28.00
2016,06,05,12,10,28.10
2016,06,05,12,11,28.10
2016,06,05,12,12,28.10
2016,06,05,12,13,28.10
2016,06,05,12,14,28.20
2016,06,05,12,15,28.20
2016,06,05,12,16,28.20
2016,06,05,12,17,28.20
2016,06,05,12,18,28.20
2016,06,05,12,19,28.30
2016,06,05,12,20,28.50
2016,06,05,12,21,28.60
2016,06,05,12,22,28.60
2016,06,05,12,23,28.70
2016,06,05,12,24,28.70
2016,06,05,12,25,28.60
2016,06,05,12,26,28.50
2016,06,05,12,27,28.40
2016,06,05,12,28,28.30
2016,06,05,12,29,28.20
2016,06,05,12,30,28.30
2016,06,05,12,31,28.30
2016,06,05,12,32,28.30
2016,06,05,12,33,28.30
2016,06,05,12,34,28.30
2016,06,05,12,35,28.40
2016,06,05,12,36,28.40
2016,06,05,12,37,28.40
2016,06,05,12,38,28.40
2016,06,05,12,39,28.40
2016,06,05,12,40,28.40
2016,06,05,12,41,28.40
2016,06,05,12,42,28.40
2016,06,05,12,43,28.40
2016,06,05,12,44,28.50
2016,06,05,12,45,28.40
2016,06,05,12,46,28.40
2016,06,05,12,47,28.30
2016,06,05,12,48,28.30
2016,06,05,12,49,28.40
2016,06,05,12,50,28.60
2016,06,05,12,51,28.70
2016,06,05,12,52,28.70
2016,06,05,12,53,28.70
2016,06,05,12,54,28.70
2016,06,05,12,55,28.80
2016,06,05,12,56,28.80
2016,06,05,12,57,28.80
2016,06,05,12,58,28.80
2016,06,05,12,59,28.70
2016,06,05,13,00,28.70
2016,06,05,13,01,28.70
2016,06,05,13,02,28.60
2016,06,05,13,03,28.50
2016,06,05,13,04,28.40
2016,06,05,13,05,28.40
2016,06,05,13,06,28.40
2016,06,05,13,07,28.50
2016,06,05,13,08,28.70
2016,06,05,13,09,28.70
2016,06,05,13,10,28.70
2016,06,05,13,11,28.60
2016,06,05,13,12,28.60
2016,06,05,13,13,28.60
2016,06,05,13,14,28.60
2016,06,05,13,15,28.70
2016,06,05,13,16,28.70
2016,06,05,13,17,28.70
2016,06,05,13,18,28.80
2016,06,05,13,19,28.90
2016,06,05,13,20,28.90
2016,06,05,13,21,29.00
2016,06,05,13,22,28.90
2016,06,05,13,23,28.90
2016,06,05,13,24,28.90
2016,06,05,13,25,29.00
2016,06,05,13,26,28.90
2016,06,05,13,27,29.00
2016,06,05,13,28,29.10
2016,06,05,13,29,29.00
2016,06,05,13,30,28.90
2016,06,05,13,31,28.90
2016,06,05,13,32,28.80
2016,06,05,13,33,28.90
2016,06,05,13,34,29.10
2016,06,05,13,35,29.20
2016,06,05,13,36,29.30
2016,06,05,13,37,29.20
2016,06,05,13,38,29.20
2016,06,05,13,39,29.20
2016,06,05,13,40,29.30
2016,06,05,13,41,29.20
2016,06,05,13,42,29.20
2016,06,05,13,43,29.10
2016,06,05,13,44,29.10
2016,06,05,13,45,29.10
2016,06,05,13,46,29.10
2016,06,05,13,47,29.20
2016,06,05,13,48,29.20
2016,06,05,13,49,29.10
2016,06,05,13,50,29.10
2016,06,05,13,51,29.00
2016,06,05,13,52,28.90
2016,06,05,13,53,29.00
2016,06,05,13,54,29.10
2016,06,05,13,55,29.10
2016,06,05,13,56,29.10
2016,06,05,13,57,29.10
2016,06,05,13,58,29.10
2016,06,05,13,59,29.20
2016,06,05,14,00,29.30
2016,06,05,14,01,29.30
2016,06,05,14,02,29.30
2016,06,05,14,03,29.30
2016,06,05,14,04,29.30
2016,06,05,14,05,29.30
2016,06,05,14,06,29.30
2016,06,05,14,07,29.30
2016,06,05,14,08,29.30
2016,06,05,14,09,29.40
2016,06,05,14,10,29.30
2016,06,05,14,11,29.20
2016,06,05,14,12,29.20
2016,06,05,14,13,29.20
2016,06,05,14,14,29.30
2016,06,05,14,15,29.30
2016,06,05,14,16,29.40
2016,06,05,14,17,29.50
2016,06,05,14,18,29.60
2016,06,05,14,19,29.60
2016,06,05,14,20,29.80
2016,06,05,14,21,29.80
2016,06,05,14,22,29.80
2016,06,05,14,23,29.80
2016,06,05,14,24,29.90
2016,06,05,14,25,29.80
2016,06,05,14,26,29.80
2016,06,05,14,27,29.70
2016,06,05,14,28,29.60
2016,06,05,14,29,29.70
2016,06,05,14,30,29.60
2016,06,05,14,31,29.50
2016,06,05,14,32,29.40
2016,06,05,14,33,29.30
2016,06,05,14,34,29.30
2016,06,05,14,35,29.40
2016,06,05,14,36,29.40
2016,06,05,14,37,29.50
2016,06,05,14,38,29.60
2016,06,05,14,39,29.70
2016,06,05,14,40,29.70
2016,06,05,14,41,29.80
2016,06,05,14,42,29.80
2016,06,05,14,43,29.80
2016,06,05,14,44,29.80
2016,06,05,14,45,29.90
2016,06,05,14,46,29.90
2016,06,05,14,47,29.90
2016,06,05,14,48,29.80
2016,06,05,14,49,29.90
2016,06,05,14,50,30.00
2016,06,05,14,51,30.00
2016,06,05,14,52,30.00
2016,06,05,14,53,29.90
2016,06,05,14,54,30.00
2016,06,05,14,55,30.10
2016,06,05,14,56,30.10
2016,06,05,14,57,30.10
2016,06,05,14,58,30.20
2016,06,05,14,59,30.30
2016,06,05,15,00,30.30
2016,06,05,15,01,30.30
2016,06,05,15,02,30.20
2016,06,05,15,03,30.10
2016,06,05,15,04,30.20
2016,06,05,15,05,30.20
2016,06,05,15,06,30.10
2016,06,05,15,07,30.10
2016,06,05,15,08,30.00
2016,06,05,15,09,30.00
2016,06,05,15,10,30.10
2016,06,05,15,11,30.20
2016,06,05,15,12,30.30
2016,06,05,15,13,30.40
2016,06,05,15,14,30.40
2016,06,05,15,15,30.30
2016,06,05,15,16,30.40
2016,06,05,15,17,30.40
2016,06,05,15,18,30.40
2016,06,05,15,19,30.50
2016,06,05,15,20,30.50
2016,06,05,15,21,30.40
2016,06,05,15,22,30.30
2016,06,05,15,23,30.30
2016,06,05,15,24,30.30
2016,06,05,15,25,30.20
2016,06,05,15,26,30.20
2016,06,05,15,27,30.10
2016,06,05,15,28,30.20
2016,06,05,15,29,30.20
2016,06,05,15,30,30.20
2016,06,05,15,31,30.20
2016,06,05,15,32,30.20
2016,06,05,15,33,30.20
2016,06,05,15,34,30.30
2016,06,05,15,35,30.40
2016,06,05,15,36,30.40
2016,06,05,15,37,30.40
2016,06,05,15,38,30.40
2016,06,05,15,39,30.40
2016,06,05,15,40,30.60
2016,06,05,15,41,30.60
2016,06,05,15,42,30.70
2016,06,05,15,43,30.80
2016,06,05,15,44,30.70
2016,06,05,15,45,30.60
2016,06,05,15,46,30.60
2016,06,05,15,47,30.60
2016,06,05,15,48,30.60
2016,06,05,15,49,30.70
2016,06,05,15,50,30.60
2016,06,05,15,51,30.60
2016,06,05,15,52,30.60
2016,06,05,15,53,30.70
2016,06,05,15,54,30.70
2016,06,05,15,55,30.80
2016,06,05,15,56,30.80
2016,06,05,15,57,30.80
2016,06,05,15,58,30.90
2016,06,05,15,59,30.80
2016,06,05,16,00,30.80
2016,06,05,16,01,30.70
2016,06,05,16,02,30.70
2016,06,05,16,03,30.70
2016,06,05,16,04,30.60
2016,06,05,16,05,30.60
2016,06,05,16,06,30.60
2016,06,05,16,07,30.60
2016,06,05,16,08,30.60
2016,06,05,16,09,30.60
2016,06,05,16,10,30.60
2016,06,05,16,11,30.60
2016,06,05,16,12,30.70
2016,06,05,16,13,30.80
2016,06,05,16,14,30.80
2016,06,05,16,15,30.80
2016,06,05,16,16,30.90
2016,06,05,16,17,30.90
2016,06,05,16,18,31.00
2016,06,05,16,19,31.10
2016,06,05,16,20,31.10
2016,06,05,16,21,31.10
2016,06,05,16,22,31.10
2016,06,05,16,23,31.10
2016,06,05,16,24,31.10
2016,06,05,16,25,31.10
2016,06,05,16,26,31.10
2016,06,05,16,27,31.10
2016,06,05,16,28,31.00
2016,06,05,16,29,31.00
2016,06,05,16,30,30.90
2016,06,05,16,31,30.80
2016,06,05,16,32,30.80
2016,06,05,16,33,30.80
2016,06,05,16,34,30.70
2016,06,05,16,35,30.70
2016,06,05,16,36,30.70
2016,06,05,16,37,30.80
2016,06,05,16,38,30.80
2016,06,05,16,39,30.90
2016,06,05,16,40,30.90
2016,06,05,16,41,30.80
2016,06,05,16,42,30.90
2016,06,05,16,43,30.90
2016,06,05,16,44,30.90
2016,06,05,16,45,30.80
2016,06,05,16,46,30.70
2016,06,05,16,47,30.70
2016,06,05,16,48,30.70
2016,06,05,16,49,30.70
2016,06,05,16,50,30.60
2016,06,05,16,51,30.60
2016,06,05,16,52,30.60
2016,06,05,16,53,30.70
2016,06,05,16,54,30.80
2016,06,05,16,55,30.90
2016,06,05,16,56,30.90
2016,06,05,16,57,31.00
2016,06,05,16,58,31.00
2016,06,05,16,59,31.00
2016,06,05,17,00,31.00
2016,06,05,17,01,31.10
2016,06,05,17,02,31.10
2016,06,05,17,03,31.10
2016,06,05,17,04,31.10
2016,06,05,17,05,31.10
2016,06,05,17,06,31.10
2016,06,05,17,07,31.10
2016,06,05,17,08,31.10
2016,06,05,17,09,31.10
2016,06,05,17,10,31.20
2016,06,05,17,11,31.20
2016,06,05,17,12,31.30
2016,06,05,17,13,31.30
2016,06,05,17,14,31.30
2016,06,05,17,15,31.30
2016,06,05,17,16,31.30
2016,06,05,17,17,31.30
2016,06,05,17,18,31.30
2016,06,05,17,19,31.20